Orbital Elements at Epoch 2459000.5 (2020-May-31.0) TDB
Reference: JPL 12 (heliocentric ecliptic J2000)
Element | Value | Uncertainty (1-sigma) | Units |
e | .1171245906171719 | 5.0441e-08 | |
a | 3.070285632715267 | 2.9849e-08 | au |
q | 2.710679684905707 | 1.6649e-07 | au |
i | 5.208939503174466 | 6.9678e-06 | deg |
node | 16.94727643076772 | 5.4358e-05 | deg |
peri | 73.49464530635795 | 6.4402e-05 | deg |
M | 350.862070357921 | 3.2211e-05 | deg |
tp | 2459050.378330258409 (2020-Jul-19.87833026) | 0.00017598 | TDB |
period | 1965.01829148924 5.38 | 2.8655e-05 7.845e-08 | d yr |
n | .1832044014853239 | 2.6716e-09 | deg/d |
Q | 3.429891580524827 | 3.3345e-08 | au |
|
| | Orbit Determination Parameters
Additional Information
|